Location: ?????
(55.6500°N, 37.2500°E)
Time: 10:17:29
(UTC+00:00)

CZ-2C R/B - Pass Details

Date: 19 May 2025
Orbit: 703 x 902 km, 98.2° (Epoch: 13 June)

Event Time Altitude Azimuth Distance (km) Brightness Sun altitude
Rises 23:19:35 0° 14° (NNE) 3,514 8.3 -10.7°
Reaches altitude 10° 23:22:00 10° 11° (NNE) 2,582 7.1 -10.6°
Maximum altitude 23:27:43 63° 292° (WNW) 1,006 3.6 -10.2°
Enters shadow 23:32:58 12° 214° (SW) 2,399 4.9 -9.8°
